,,PA_Meas_PMT16A,,PR_Meas_QMR101_102,,RH_Meas_QMH101,,SR_Meas_QMS101,,TA_Meas_QMH101,,GenWind,,GenWind,
time,status,PA,status,PR,status,RH,status,SR,status,TA,status,DirAvg,status,SpdAvg,
2010-01-19, 00:00:04,VALID,920.241,VALID,0,VALID,97.351,VALID,0,VALID,19.4463,VALID,237,VALID,0.322656,
2010-01-19, 00:01:04,VALID,920.261,VALID,0,VALID,97.3663,VALID,0,VALID,19.4463,VALID,237,VALID,0.766016,
2010-01-19, 00:02:04,VALID,920.237,VALID,0,VALID,97.351,VALID,0.107441,VALID,19.4268,VALID,185,VALID,0.950781,
2010-01-19, 00:03:04,VALID,920.238,VALID,0,VALID,97.3739,VALID,0.107441,VALID,19.4268,VALID,185,VALID,0.9625,
2010-01-19, 00:04:04,VALID,920.221,VALID,0,VALID,97.3663,VALID,0.107441,VALID,19.4268,VALID,185,VALID,0.718359,
2010-01-19, 00:05:04,VALID,920.206,VALID,0,VALID,97.3815,VALID,0.107441,VALID,19.4268,VALID,185,VALID,0.489062,
2010-01-19, 00:06:04,VALID,920.175,VALID,0.2,VALID,97.3891,VALID,0,VALID,19.4268,VALID,185,VALID,0.688281,
2010-01-19, 00:07:04,VALID,920.158,VALID,0,VALID,97.4044,VALID,0.107441,VALID,19.4268,VALID,185,VALID,0.480469,
2010-01-19, 00:08:04,VALID,920.102,VALID,0,VALID,97.3891,VALID,0.107441,VALID,19.4268,VALID,185,VALID,0.45,
2010-01-19, 00:09:04,VALID,920.041,VALID,0.2,VALID,97.3739,VALID,0.107441,VALID,19.4074,VALID,185,VALID,0.655469,
2010-01-19, 00:10:04,VALID,919.977,VALID,0,VALID,97.4273,VALID,0.107441,VALID,19.4268,VALID,185,VALID,0.561328,
2010-01-19, 00:11:04,VALID,919.944,VALID,0.2,VALID,97.4196,VALID,0,VALID,19.4074,VALID,185,VALID,0.325781,
2010-01-19, 00:12:04,VALID,919.948,VALID,0,VALID,97.4349,VALID,0.107441,VALID,19.4074,VALID,185,VALID,0.365625,
2010-01-19, 00:13:04,VALID,919.89,VALID,0,VALID,97.4425,VALID,0.107441,VALID,19.4268,VALID,185,VALID,0.255859,
2010-01-19, 00:14:04,VALID,919.883,VALID,0,VALID,97.4349,VALID,0.107441,VALID,19.4074,VALID,185,VALID,0.454688,
2010-01-19, 00:15:04,VALID,919.903,VALID,0.2,VALID,97.4654,VALID,0.107441,VALID,19.4074,VALID,185,VALID,0.378516,
2010-01-19, 00:16:04,VALID,919.932,VALID,0,VALID,97.4501,VALID,0.107441,VALID,19.4268,VALID,185,VALID,0.355469,
2010-01-19, 00:17:04,VALID,919.942,VALID,0,VALID,97.4654,VALID,0,VALID,19.4059,VALID,185,VALID,0.157813,
2010-01-19, 00:18:04,VALID,919.936,VALID,0,VALID,97.4806,VALID,0.107441,VALID,19.4059,VALID,185,VALID,0.441016,
2010-01-19, 00:19:04,VALID,919.948,VALID,0,VALID,97.5187,VALID,0.107441,VALID,19.4853,VALID,185,VALID,0.221094,
2010-01-19, 00:20:04,VALID,919.979,VALID,0,VALID,97.5111,VALID,0.107441,VALID,19.5063,VALID,185,VALID,0.131641,
2010-01-19, 00:21:04,VALID,919.968,VALID,0.2,VALID,97.5035,VALID,0.107441,VALID,19.5048,VALID,185,VALID,0.0578125,
2010-01-19, 00:22:04,VALID,919.985,VALID,0,VALID,97.4959,VALID,0.107441,VALID,19.4853,VALID,185,VALID,0.0015625,
2010-01-19, 00:23:04,VALID,920.004,VALID,0,VALID,97.4882,VALID,0,VALID,19.4658,VALID,185,VALID,0.6125,
2010-01-19, 00:24:04,VALID,919.956,VALID,0,VALID,97.4654,VALID,0.107441,VALID,19.4463,VALID,185,VALID,0.726953,
2010-01-19, 00:25:04,VALID,919.964,VALID,0,VALID,97.4577,VALID,0.107441,VALID,19.4268,VALID,185,VALID,0.751953,
2010-01-19, 00:26:04,VALID,919.966,VALID,0,VALID,97.473,VALID,0,VALID,19.4463,VALID,185,VALID,0.602344,
2010-01-19, 00:27:04,VALID,919.955,VALID,0,VALID,97.4806,VALID,0,VALID,19.4268,VALID,185,VALID,0.757422,
2010-01-19, 00:28:04,VALID,920.037,VALID,0,VALID,97.4959,VALID,0.107441,VALID,19.4268,VALID,185,VALID,0.458984,
2010-01-19, 00:29:04,VALID,920.068,VALID,0,VALID,97.5111,VALID,0,VALID,19.4658,VALID,185,VALID,1.00391,
2010-01-19, 00:30:04,VALID,920.071,VALID,0,VALID,97.5416,VALID,0.107441,VALID,19.4463,VALID,185,VALID,0.437891,
2010-01-19, 00:31:04,VALID,920.051,VALID,0,VALID,97.5569,VALID,0.107441,VALID,19.4853,VALID,185,VALID,0.00195313,
2010-01-19, 00:32:04,VALID,920.048,VALID,0,VALID,97.5492,VALID,0,VALID,19.5438,VALID,185,VALID,0,
2010-01-19, 00:33:04,VALID,920.053,VALID,0,VALID,97.5569,VALID,0,VALID,19.5453,VALID,185,VALID,0.441797,
2010-01-19, 00:34:04,VALID,920.045,VALID,0.2,VALID,97.5721,VALID,0.107441,VALID,19.5438,VALID,185,VALID,0.513672,
2010-01-19, 00:35:04,VALID,920.045,VALID,0,VALID,97.5416,VALID,0.107441,VALID,19.5633,VALID,185,VALID,0.894531,
2010-01-19, 00:36:04,VALID,920.029,VALID,0,VALID,97.3968,VALID,0.107441,VALID,19.5048,VALID,185,VALID,0.967969,
2010-01-19, 00:37:04,VALID,920.002,VALID,0,VALID,97.4425,VALID,0.107441,VALID,19.4449,VALID,185,VALID,0.511719,
2010-01-19, 00:38:04,VALID,919.96,VALID,0,VALID,97.4425,VALID,0.107441,VALID,19.4449,VALID,185,VALID,0.571094,
2010-01-19, 00:39:04,VALID,919.89,VALID,0,VALID,97.5416,VALID,0.107441,VALID,19.4463,VALID,185,VALID,0.452344,
2010-01-19, 00:40:04,VALID,919.948,VALID,0,VALID,97.5492,VALID,0.107441,VALID,19.4658,VALID,185,VALID,0.448828,
2010-01-19, 00:41:04,VALID,919.932,VALID,0,VALID,97.5873,VALID,0.107441,VALID,19.4853,VALID,185,VALID,0.587109,
2010-01-19, 00:42:04,VALID,919.939,VALID,0,VALID,97.5416,VALID,0,VALID,19.4853,VALID,185,VALID,0.640625,
2010-01-19, 00:43:04,VALID,919.936,VALID,0.2,VALID,97.5645,VALID,0.107441,VALID,19.5048,VALID,185,VALID,0.495313,
2010-01-19, 00:44:04,VALID,919.917,VALID,0,VALID,97.5035,VALID,0.107441,VALID,19.4853,VALID,185,VALID,0.553516,
2010-01-19, 00:45:04,VALID,919.943,VALID,0,VALID,97.473,VALID,0.107441,VALID,19.4463,VALID,185,VALID,0.664453,
2010-01-19, 00:46:04,VALID,919.946,VALID,0,VALID,97.5873,VALID,0.107441,VALID,19.4463,VALID,185,VALID,0.554297,
2010-01-19, 00:47:04,VALID,919.926,VALID,0,VALID,97.5721,VALID,0.107441,VALID,19.4853,VALID,185,VALID,0.369531,
2010-01-19, 00:48:04,VALID,919.979,VALID,0.2,VALID,97.5569,VALID,0.107441,VALID,19.5048,VALID,185,VALID,0.734375,
2010-01-19, 00:49:04,VALID,919.958,VALID,0.2,VALID,97.5264,VALID,0.107441,VALID,19.4658,VALID,185,VALID,0.877344,
2010-01-19, 00:50:04,VALID,919.87,VALID,0.6,VALID,97.5721,VALID,0.107441,VALID,19.5048,VALID,185,VALID,0.604297,
2010-01-19, 00:51:04,VALID,919.83,VALID,0.2,VALID,97.5873,VALID,0.107441,VALID,19.5243,VALID,185,VALID,0.452344,
2010-01-19, 00:52:04,VALID,919.824,VALID,0,VALID,97.5645,VALID,0,VALID,19.5453,VALID,185,VALID,0.459766,
2010-01-19, 00:53:04,VALID,919.797,VALID,0,VALID,97.595,VALID,0.107441,VALID,19.5438,VALID,185,VALID,0.410547,
2010-01-19, 00:54:04,VALID,919.836,VALID,0.2,VALID,97.5873,VALID,0.107441,VALID,19.5828,VALID,185,VALID,0.805859,
2010-01-19, 00:55:04,VALID,919.827,VALID,0,VALID,97.5569,VALID,0.107441,VALID,19.5633,VALID,185,VALID,0.705859,
2010-01-19, 00:56:04,VALID,919.853,VALID,0,VALID,97.595,VALID,0,VALID,19.5828,VALID,185,VALID,0.104297,
2010-01-19, 00:57:04,VALID,919.911,VALID,0,VALID,97.595,VALID,0.107441,VALID,19.6023,VALID,185,VALID,0.423828,
2010-01-19, 00:58:04,VALID,919.928,VALID,0.2,VALID,97.5492,VALID,0,VALID,19.5828,VALID,185,VALID,0.456641,
2010-01-19, 00:59:04,VALID,919.825,VALID,0.2,VALID,97.5797,VALID,0,VALID,19.5828,VALID,185,VALID,0.208594,
2010-01-19, 01:00:04,VALID,919.782,VALID,0.2,VALID,97.5416,VALID,0.107441,VALID,19.5828,VALID,185,VALID,0.767578,
2010-01-19, 01:01:04,VALID,919.718,VALID,0,VALID,97.5187,VALID,0.107441,VALID,19.5243,VALID,185,VALID,0.951172,
2010-01-19, 01:02:04,VALID,919.77,VALID,0,VALID,97.534,VALID,0.107441,VALID,19.4853,VALID,185,VALID,0.532031,
2010-01-19, 01:03:04,VALID,919.773,VALID,0,VALID,97.5264,VALID,0,VALID,19.5048,VALID,185,VALID,0,
2010-01-19, 01:04:04,VALID,919.736,VALID,0.2,VALID,97.534,VALID,0,VALID,19.5048,VALID,185,VALID,0.262109,
2010-01-19, 01:05:04,VALID,919.764,VALID,0,VALID,97.5492,VALID,0,VALID,19.5048,VALID,185,VALID,0.199609,
2010-01-19, 01:06:04,VALID,919.772,VALID,0,VALID,97.595,VALID,0.107441,VALID,19.5243,VALID,185,VALID,0.167187,
2010-01-19, 01:07:04,VALID,919.759,VALID,0,VALID,97.5416,VALID,0.107441,VALID,19.5048,VALID,185,VALID,0.525,
2010-01-19, 01:08:04,VALID,919.753,VALID,0,VALID,97.5645,VALID,0.107441,VALID,19.4853,VALID,185,VALID,0.477734,
2010-01-19, 01:09:04,VALID,919.72,VALID,0,VALID,97.5645,VALID,0.107441,VALID,19.4853,VALID,185,VALID,0.0601562,
2010-01-19, 01:10:04,VALID,919.629,VALID,0,VALID,97.5569,VALID,0,VALID,19.4853,VALID,185,VALID,0.349219,
2010-01-19, 01:11:04,VALID,919.65,VALID,0,VALID,97.5797,VALID,0.107441,VALID,19.4839,VALID,185,VALID,0.619531,
2010-01-19, 01:12:04,VALID,919.637,VALID,0,VALID,97.5569,VALID,0,VALID,19.5243,VALID,185,VALID,0.592578,
2010-01-19, 01:13:04,VALID,919.617,VALID,0,VALID,97.5264,VALID,0.107441,VALID,19.4644,VALID,185,VALID,0.326562,
2010-01-19, 01:14:04,VALID,919.585,VALID,0,VALID,97.5264,VALID,0.107441,VALID,19.4658,VALID,185,VALID,1.08398,
2010-01-19, 01:15:04,VALID,919.551,VALID,0,VALID,97.595,VALID,0.107441,VALID,19.4853,VALID,184,VALID,1.00117,
2010-01-19, 01:16:04,VALID,919.486,VALID,0,VALID,97.5416,VALID,0.107441,VALID,19.4853,VALID,184,VALID,1.42578,
2010-01-19, 01:17:04,VALID,919.487,VALID,0,VALID,97.5492,VALID,0.107441,VALID,19.4463,VALID,184,VALID,0.737109,
2010-01-19, 01:18:04,VALID,919.476,VALID,0,VALID,97.5569,VALID,0.107441,VALID,19.4254,VALID,184,VALID,0.608203,
2010-01-19, 01:19:04,VALID,919.436,VALID,0,VALID,97.6331,VALID,0.107441,VALID,19.4644,VALID,184,VALID,0.475391,
2010-01-19, 01:20:04,VALID,919.444,VALID,0,VALID,97.6026,VALID,0.107441,VALID,19.4853,VALID,184,VALID,0.431641,
2010-01-19, 01:21:04,VALID,919.393,VALID,0,VALID,97.5416,VALID,0.107441,VALID,19.4658,VALID,184,VALID,0.59375,
2010-01-19, 01:22:04,VALID,919.389,VALID,0,VALID,97.534,VALID,0.107441,VALID,19.4059,VALID,184,VALID,0.463672,
2010-01-19, 01:23:04,VALID,919.358,VALID,0,VALID,97.5645,VALID,0.107441,VALID,19.4074,VALID,184,VALID,0.417188,
2010-01-19, 01:24:04,VALID,919.37,VALID,0,VALID,97.5569,VALID,0.107441,VALID,19.3879,VALID,184,VALID,0.707422,
2010-01-19, 01:25:04,VALID,919.362,VALID,0,VALID,97.5797,VALID,0.107441,VALID,19.3684,VALID,184,VALID,0.649609,
2010-01-19, 01:26:04,VALID,919.33,VALID,0,VALID,97.5873,VALID,0.107441,VALID,19.3669,VALID,184,VALID,0.560156,
2010-01-19, 01:27:04,VALID,919.369,VALID,0,VALID,97.6255,VALID,0,VALID,19.4074,VALID,184,VALID,0.619531,
2010-01-19, 01:28:04,VALID,919.357,VALID,0,VALID,97.6026,VALID,0.107441,VALID,19.4074,VALID,184,VALID,0.832812,
2010-01-19, 01:29:04,VALID,919.31,VALID,0,VALID,97.6026,VALID,0.107441,VALID,19.4074,VALID,184,VALID,0.783984,
2010-01-19, 01:30:04,VALID,919.297,VALID,0,VALID,97.6102,VALID,0.107441,VALID,19.3684,VALID,184,VALID,0.665625,
2010-01-19, 01:31:04,VALID,919.245,VALID,0,VALID,97.6255,VALID,0,VALID,19.3684,VALID,184,VALID,0.569922,
2010-01-19, 01:32:04,VALID,919.234,VALID,0,VALID,97.6255,VALID,0.107441,VALID,19.3879,VALID,184,VALID,0.704687,
2010-01-19, 01:33:04,VALID,919.18,VALID,0,VALID,97.6178,VALID,0.107441,VALID,19.3684,VALID,184,VALID,0.939844,
2010-01-19, 01:34:04,VALID,919.178,VALID,0,VALID,97.6026,VALID,0,VALID,19.3684,VALID,184,VALID,0.920703,
2010-01-19, 01:35:04,VALID,919.118,VALID,0,VALID,97.6407,VALID,0.107441,VALID,19.3864,VALID,184,VALID,0.676562,
2010-01-19, 01:36:04,VALID,919.112,VALID,0,VALID,97.6178,VALID,0.107441,VALID,19.3879,VALID,184,VALID,0.466406,
2010-01-19, 01:37:04,VALID,919.079,VALID,0,VALID,97.6178,VALID,0.107441,VALID,19.3669,VALID,184,VALID,0.730078,
2010-01-19, 01:38:04,VALID,919.061,VALID,0,VALID,97.6102,VALID,0,VALID,19.3879,VALID,184,VALID,0.515625,
2010-01-19, 01:39:04,VALID,918.999,VALID,0,VALID,97.6026,VALID,0.107441,VALID,19.3489,VALID,184,VALID,0.799609,
2010-01-19, 01:40:04,VALID,919.01,VALID,0,VALID,97.6331,VALID,0.107441,VALID,19.3489,VALID,184,VALID,0.553516,
2010-01-19, 01:41:04,VALID,919.015,VALID,0,VALID,97.6331,VALID,0.107441,VALID,19.3489,VALID,184,VALID,0.839453,
2010-01-19, 01:42:04,VALID,919,VALID,0,VALID,97.6483,VALID,0.107441,VALID,19.3684,VALID,183,VALID,0.723828,
2010-01-19, 01:43:04,VALID,919.02,VALID,0,VALID,97.6407,VALID,0,VALID,19.3474,VALID,183,VALID,0.583594,
2010-01-19, 01:44:04,VALID,918.995,VALID,0,VALID,97.6331,VALID,0.107441,VALID,19.3489,VALID,183,VALID,1.02383,
2010-01-19, 01:45:04,VALID,919.008,VALID,0,VALID,97.6331,VALID,0.107441,VALID,19.3684,VALID,183,VALID,0.676562,
2010-01-19, 01:46:04,VALID,918.99,VALID,0,VALID,97.6331,VALID,0,VALID,19.3684,VALID,183,VALID,0.682031,
2010-01-19, 01:47:04,VALID,918.997,VALID,0,VALID,97.6255,VALID,0,VALID,19.3489,VALID,183,VALID,0.55625,
2010-01-19, 01:48:04,VALID,918.972,VALID,0,VALID,97.6483,VALID,0.107441,VALID,19.3294,VALID,183,VALID,0.807813,
2010-01-19, 01:49:04,VALID,918.994,VALID,0,VALID,97.6636,VALID,0.107441,VALID,19.3489,VALID,183,VALID,0.275,
2010-01-19, 01:50:04,VALID,918.972,VALID,0,VALID,97.6407,VALID,0.107441,VALID,19.3294,VALID,183,VALID,0.903516,
2010-01-19, 01:51:04,VALID,918.968,VALID,0,VALID,97.6407,VALID,0.107441,VALID,19.3099,VALID,183,VALID,0.529297,
2010-01-19, 01:52:04,VALID,918.94,VALID,0,VALID,97.6255,VALID,0,VALID,19.3099,VALID,183,VALID,0.657422,
2010-01-19, 01:53:04,VALID,918.912,VALID,0,VALID,97.6712,VALID,0.107441,VALID,19.2889,VALID,183,VALID,0.774609,
2010-01-19, 01:54:04,VALID,918.896,VALID,0,VALID,97.6636,VALID,0.107441,VALID,19.3099,VALID,183,VALID,0.730859,
2010-01-19, 01:55:04,VALID,918.89,VALID,0,VALID,97.6636,VALID,0.107441,VALID,19.3099,VALID,182,VALID,0.938672,
2010-01-19, 01:56:04,VALID,918.894,VALID,0,VALID,97.7017,VALID,0,VALID,19.3099,VALID,182,VALID,0.389453,
2010-01-19, 01:57:04,VALID,918.847,VALID,0,VALID,97.6865,VALID,0.107441,VALID,19.2904,VALID,182,VALID,1.025,
2010-01-19, 01:58:04,VALID,918.843,VALID,0,VALID,97.6865,VALID,0,VALID,19.3099,VALID,182,VALID,0.613672,
2010-01-19, 01:59:04,VALID,918.835,VALID,0,VALID,97.6712,VALID,0.107441,VALID,19.3099,VALID,182,VALID,0.596875,
2010-01-19, 02:00:04,VALID,918.846,VALID,0,VALID,97.6483,VALID,0.107441,VALID,19.2709,VALID,181,VALID,1.19453,
2010-01-19, 02:01:04,VALID,918.808,VALID,0,VALID,97.6483,VALID,0,VALID,19.2514,VALID,181,VALID,0.573828,
2010-01-19, 02:02:04,VALID,918.828,VALID,0,VALID,97.6865,VALID,0,VALID,19.3099,VALID,181,VALID,0.685938,
2010-01-19, 02:03:04,VALID,918.831,VALID,0,VALID,97.6941,VALID,0.107441,VALID,19.3099,VALID,181,VALID,0.925391,
2010-01-19, 02:04:04,VALID,918.845,VALID,0,VALID,97.7093,VALID,0,VALID,19.2904,VALID,181,VALID,0.799219,
2010-01-19, 02:05:04,VALID,918.849,VALID,0,VALID,97.7017,VALID,0,VALID,19.3099,VALID,180,VALID,0.891797,
2010-01-19, 02:06:04,VALID,918.834,VALID,0.2,VALID,97.6941,VALID,0,VALID,19.3099,VALID,180,VALID,0.283984,
2010-01-19, 02:07:04,VALID,918.87,VALID,0,VALID,97.6941,VALID,0,VALID,19.3099,VALID,180,VALID,0.786719,
2010-01-19, 02:08:04,VALID,918.852,VALID,0,VALID,97.6788,VALID,0,VALID,19.3308,VALID,180,VALID,0.866797,
2010-01-19, 02:09:04,VALID,918.841,VALID,0,VALID,97.7017,VALID,0.107441,VALID,19.3099,VALID,180,VALID,0.579297,
2010-01-19, 02:10:04,VALID,918.848,VALID,0,VALID,97.6941,VALID,0,VALID,19.2904,VALID,180,VALID,0.624219,
2010-01-19, 02:11:04,VALID,918.875,VALID,0,VALID,97.6865,VALID,0,VALID,19.2904,VALID,179,VALID,0.942187,
2010-01-19, 02:12:04,VALID,918.863,VALID,0,VALID,97.6865,VALID,0,VALID,19.2904,VALID,179,VALID,0.756641,
2010-01-19, 02:13:04,VALID,918.853,VALID,0,VALID,97.7093,VALID,0.107441,VALID,19.2904,VALID,179,VALID,1.01328,
2010-01-19, 02:14:04,VALID,918.838,VALID,0,VALID,97.7093,VALID,0.107441,VALID,19.2709,VALID,179,VALID,0.84375,
2010-01-19, 02:15:04,VALID,918.845,VALID,0,VALID,97.7017,VALID,0.107441,VALID,19.2904,VALID,179,VALID,0.761328,
2010-01-19, 02:16:04,VALID,918.836,VALID,0,VALID,97.6941,VALID,0.107441,VALID,19.2904,VALID,179,VALID,0.720312,
2010-01-19, 02:17:04,VALID,918.873,VALID,0,VALID,97.7246,VALID,0,VALID,19.2709,VALID,179,VALID,0.727734,
2010-01-19, 02:18:04,VALID,918.824,VALID,0,VALID,97.7169,VALID,0.107441,VALID,19.3099,VALID,179,VALID,0.861328,
2010-01-19, 02:19:04,VALID,918.817,VALID,0,VALID,97.7017,VALID,0.107441,VALID,19.3099,VALID,179,VALID,0.929297,
2010-01-19, 02:20:04,VALID,918.803,VALID,0,VALID,97.7246,VALID,0,VALID,19.2709,VALID,178,VALID,0.766016,
2010-01-19, 02:21:04,VALID,918.771,VALID,0,VALID,97.6712,VALID,0.107441,VALID,19.2709,VALID,178,VALID,0.542969,
2010-01-19, 02:22:04,VALID,918.782,VALID,0,VALID,97.6941,VALID,0,VALID,19.2904,VALID,178,VALID,0.739453,
2010-01-19, 02:23:04,VALID,918.767,VALID,0,VALID,97.6865,VALID,0.107441,VALID,19.2709,VALID,178,VALID,0.751172,
2010-01-19, 02:24:04,VALID,918.797,VALID,0,VALID,97.6941,VALID,0.107441,VALID,19.2904,VALID,178,VALID,1.01523,
2010-01-19, 02:25:04,VALID,918.785,VALID,0,VALID,97.6941,VALID,0.107441,VALID,19.2514,VALID,178,VALID,0.623828,
2010-01-19, 02:26:04,VALID,918.768,VALID,0,VALID,97.7246,VALID,0.107441,VALID,19.2709,VALID,178,VALID,0.974219,
2010-01-19, 02:27:04,VALID,918.79,VALID,0,VALID,97.7017,VALID,0.107441,VALID,19.2709,VALID,177,VALID,1.11875,
2010-01-19, 02:28:04,VALID,918.785,VALID,0,VALID,97.6865,VALID,0.107441,VALID,19.2514,VALID,177,VALID,0.6375,
2010-01-19, 02:29:04,VALID,918.752,VALID,0,VALID,97.7017,VALID,0.107441,VALID,19.2319,VALID,152,VALID,0.671094,
2010-01-19, 02:30:04,VALID,918.797,VALID,0,VALID,97.6712,VALID,0.107441,VALID,19.2319,VALID,151,VALID,0.845312,
2010-01-19, 02:31:04,VALID,918.74,VALID,0,VALID,97.7017,VALID,0,VALID,19.2124,VALID,151,VALID,0.714063,
2010-01-19, 02:32:04,VALID,918.761,VALID,0,VALID,97.6865,VALID,0,VALID,19.1929,VALID,134,VALID,1.33398,
2010-01-19, 02:33:04,VALID,918.733,VALID,0,VALID,97.6865,VALID,0.107441,VALID,19.172,VALID,133,VALID,0.754687,
2010-01-19, 02:34:04,VALID,918.707,VALID,0,VALID,97.6788,VALID,0,VALID,19.1929,VALID,133,VALID,0.982422,
2010-01-19, 02:35:04,VALID,918.69,VALID,0,VALID,97.7093,VALID,0.107441,VALID,19.1929,VALID,132,VALID,0.930078,
2010-01-19, 02:36:04,VALID,918.683,VALID,0,VALID,97.7017,VALID,0.107441,VALID,19.1734,VALID,132,VALID,0.902344,
2010-01-19, 02:37:04,VALID,918.683,VALID,0,VALID,97.6865,VALID,0.107441,VALID,19.1734,VALID,132,VALID,1.0543,
2010-01-19, 02:38:04,VALID,918.676,VALID,0,VALID,97.7093,VALID,0,VALID,19.1539,VALID,117,VALID,1.35234,
2010-01-19, 02:39:04,VALID,918.669,VALID,0,VALID,97.7093,VALID,0.107441,VALID,19.1539,VALID,95,VALID,0.750391,
2010-01-19, 02:40:04,VALID,918.628,VALID,0,VALID,97.7017,VALID,0.107441,VALID,19.1539,VALID,95,VALID,0.448438,
2010-01-19, 02:41:04,VALID,918.643,VALID,0,VALID,97.6941,VALID,0,VALID,19.1539,VALID,95,VALID,0.863672,
2010-01-19, 02:42:04,VALID,918.637,VALID,0,VALID,97.7246,VALID,0.107441,VALID,19.1539,VALID,95,VALID,0.725391,
2010-01-19, 02:43:04,VALID,918.641,VALID,0,VALID,97.7322,VALID,0.107441,VALID,19.1539,VALID,95,VALID,0.607031,
2010-01-19, 02:44:04,VALID,918.642,VALID,0,VALID,97.7169,VALID,0.107441,VALID,19.1539,VALID,95,VALID,0.917578,
2010-01-19, 02:45:04,VALID,918.64,VALID,0,VALID,97.7169,VALID,0,VALID,19.1734,VALID,95,VALID,0.946875,
2010-01-19, 02:46:04,VALID,918.64,VALID,0,VALID,97.7398,VALID,0,VALID,19.1734,VALID,95,VALID,0.830078,
2010-01-19, 02:47:04,VALID,918.675,VALID,0,VALID,97.7398,VALID,0.107441,VALID,19.1929,VALID,95,VALID,0.978125,
2010-01-19, 02:48:04,VALID,918.685,VALID,0,VALID,97.7322,VALID,0.107441,VALID,19.2124,VALID,96,VALID,0.214062,
2010-01-19, 02:49:04,VALID,918.657,VALID,0,VALID,97.7322,VALID,0.107441,VALID,19.2124,VALID,95,VALID,0.442187,
2010-01-19, 02:50:04,VALID,918.663,VALID,0,VALID,97.7474,VALID,0.107441,VALID,19.2319,VALID,95,VALID,0.521484,
2010-01-19, 02:51:04,VALID,918.66,VALID,0,VALID,97.7474,VALID,0,VALID,19.2319,VALID,95,VALID,0.286328,
2010-01-19, 02:52:04,VALID,918.659,VALID,0,VALID,97.7169,VALID,0,VALID,19.2528,VALID,95,VALID,0.4875,
2010-01-19, 02:53:04,VALID,918.63,VALID,0,VALID,97.7169,VALID,0,VALID,19.2334,VALID,95,VALID,0.742578,
2010-01-19, 02:54:04,VALID,918.645,VALID,0,VALID,97.7322,VALID,0.107441,VALID,19.1929,VALID,95,VALID,0.974219,
2010-01-19, 02:55:04,VALID,918.596,VALID,0,VALID,97.7322,VALID,0.107441,VALID,19.1734,VALID,95,VALID,0.960938,
2010-01-19, 02:56:04,VALID,918.588,VALID,0,VALID,97.7398,VALID,0.107441,VALID,19.1734,VALID,95,VALID,0.637891,
2010-01-19, 02:57:04,VALID,918.586,VALID,0,VALID,97.7398,VALID,0,VALID,19.1734,VALID,95,VALID,0.808203,
2010-01-19, 02:58:04,VALID,918.577,VALID,0,VALID,97.7398,VALID,0,VALID,19.1749,VALID,107,VALID,0.891406,
2010-01-19, 02:59:04,VALID,918.61,VALID,0,VALID,97.7398,VALID,0,VALID,19.1734,VALID,135,VALID,0.840234,
2010-01-19, 03:00:04,VALID,918.623,VALID,0,VALID,97.7551,VALID,0,VALID,19.1734,VALID,135,VALID,0.788672,
2010-01-19, 03:01:04,VALID,918.647,VALID,0,VALID,97.7246,VALID,0.107441,VALID,19.1929,VALID,135,VALID,0.785156,
2010-01-19, 03:02:04,VALID,918.646,VALID,0,VALID,97.7246,VALID,0,VALID,19.2124,VALID,135,VALID,0.265625,
2010-01-19, 03:03:04,VALID,918.668,VALID,0,VALID,97.7398,VALID,0,VALID,19.1929,VALID,156,VALID,0.871094,
2010-01-19, 03:04:04,VALID,918.666,VALID,0,VALID,97.7322,VALID,0,VALID,19.2139,VALID,156,VALID,0.903516,
2010-01-19, 03:05:04,VALID,918.646,VALID,0,VALID,97.7474,VALID,0.107441,VALID,19.2139,VALID,156,VALID,0.700391,
2010-01-19, 03:06:04,VALID,918.65,VALID,0,VALID,97.7398,VALID,0,VALID,19.2334,VALID,156,VALID,0.652734,
2010-01-19, 03:07:04,VALID,918.643,VALID,0,VALID,97.7322,VALID,0,VALID,19.1929,VALID,156,VALID,1.00742,
2010-01-19, 03:08:04,VALID,918.645,VALID,0,VALID,97.7093,VALID,0,VALID,19.1929,VALID,156,VALID,1.32305,
2010-01-19, 03:09:04,VALID,918.641,VALID,0,VALID,97.7322,VALID,0,VALID,19.2124,VALID,157,VALID,1.00234,
2010-01-19, 03:10:04,VALID,918.654,VALID,0,VALID,97.7246,VALID,0,VALID,19.1929,VALID,168,VALID,0.473437,
2010-01-19, 03:11:04,VALID,918.616,VALID,0,VALID,97.7169,VALID,0,VALID,19.1929,VALID,167,VALID,0.953906,
2010-01-19, 03:12:04,VALID,918.63,VALID,0,VALID,97.7474,VALID,0.107441,VALID,19.2139,VALID,130,VALID,1.07422,
2010-01-19, 03:13:04,VALID,918.626,VALID,0,VALID,97.7169,VALID,0,VALID,19.2139,VALID,125,VALID,1.03242,
2010-01-19, 03:14:04,VALID,918.627,VALID,0,VALID,97.7322,VALID,0,VALID,19.1929,VALID,125,VALID,0.707422,
2010-01-19, 03:15:04,VALID,918.614,VALID,0,VALID,97.7474,VALID,0,VALID,19.1944,VALID,125,VALID,0.825781,
2010-01-19, 03:16:04,VALID,918.588,VALID,0,VALID,97.7322,VALID,0,VALID,19.1944,VALID,124,VALID,0.721875,
2010-01-19, 03:17:04,VALID,918.576,VALID,0,VALID,97.7322,VALID,0,VALID,19.1749,VALID,124,VALID,1.05469,
2010-01-19, 03:18:04,VALID,918.59,VALID,0,VALID,97.7474,VALID,0,VALID,19.1749,VALID,124,VALID,1.09766,
2010-01-19, 03:19:04,VALID,918.556,VALID,0,VALID,97.7169,VALID,0,VALID,19.1749,VALID,124,VALID,1.38125,
2010-01-19, 03:20:04,VALID,918.526,VALID,0,VALID,97.7474,VALID,0,VALID,19.1554,VALID,124,VALID,1.63477,
2010-01-19, 03:21:04,VALID,918.551,VALID,0,VALID,97.7551,VALID,0,VALID,19.1554,VALID,124,VALID,1.17422,
2010-01-19, 03:22:04,VALID,918.544,VALID,0,VALID,97.7703,VALID,0,VALID,19.1554,VALID,124,VALID,1.04727,
2010-01-19, 03:23:04,VALID,918.518,VALID,0,VALID,97.7322,VALID,0,VALID,19.1763,VALID,124,VALID,1.24453,
2010-01-19, 03:24:04,VALID,918.463,VALID,0,VALID,97.7474,VALID,0,VALID,19.1554,VALID,124,VALID,1.27539,
2010-01-19, 03:25:04,VALID,918.499,VALID,0,VALID,97.7551,VALID,0,VALID,19.1554,VALID,124,VALID,0.969141,
2010-01-19, 03:26:04,VALID,918.496,VALID,0,VALID,97.7093,VALID,0,VALID,19.1344,VALID,124,VALID,0.79375,
2010-01-19, 03:27:04,VALID,918.509,VALID,0,VALID,97.7474,VALID,0,VALID,19.1359,VALID,124,VALID,0.753125,
2010-01-19, 03:28:04,VALID,918.477,VALID,0,VALID,97.7474,VALID,0,VALID,19.1554,VALID,123,VALID,1.36016,
2010-01-19, 03:29:04,VALID,918.471,VALID,0,VALID,97.7627,VALID,0,VALID,19.1344,VALID,123,VALID,0.793359,
2010-01-19, 03:30:04,VALID,918.443,VALID,0,VALID,97.7551,VALID,0,VALID,19.1749,VALID,123,VALID,0.850781,
2010-01-19, 03:31:04,VALID,918.439,VALID,0,VALID,97.7322,VALID,0,VALID,19.1554,VALID,123,VALID,1.03867,
2010-01-19, 03:32:04,VALID,918.432,VALID,0,VALID,97.7246,VALID,0,VALID,19.1554,VALID,123,VALID,1.01367,
2010-01-19, 03:33:04,VALID,918.416,VALID,0,VALID,97.7169,VALID,0,VALID,19.1359,VALID,132,VALID,0.55,
2010-01-19, 03:34:04,VALID,918.415,VALID,0,VALID,97.7169,VALID,0,VALID,19.1149,VALID,132,VALID,0.902734,
2010-01-19, 03:35:04,VALID,918.395,VALID,0,VALID,97.7169,VALID,0,VALID,19.1359,VALID,132,VALID,0.478906,
2010-01-19, 03:36:04,VALID,918.426,VALID,0,VALID,97.7398,VALID,0,VALID,19.1344,VALID,132,VALID,0.633984,